Location: Ravensburg
(48.5621°N, 13.4088°E)
Time: 00:11:48
(UTC+01:00)

Amateur Radio Satellites - All Passes

Search period start: 18 November 2017 23:41
Search period end: 19 November 2017 23:41
Location: Ravensburg, 48.5621°N, 13.4088°E

Satellite Date Start Highest point End Downlink Frequencies (MHz)
Time Altitude Azimuth
50 SAT 18 Nov 23:44:28 23:46:32 16° 64° (ENE) 23:48:37 437.505
VELOX 1 18 Nov 23:44:58 23:49:23 74° 74° (ENE) 23:53:52 145.980
ISS 18 Nov 23:45:18 23:48:35 76° 341° (NNW) 23:51:52 437.550
FO-29 18 Nov 23:51:27 23:54:50 13° 318° (NW) 23:58:13 435.910
RS-15 18 Nov 23:53:11 00:04:17 37° 358° (N) 00:14:59 29.354- 29.394
UKube-1 18 Nov 23:54:25 23:57:19 18° 60° (ENE) 00:00:12 .
BUGSAT 1 19 Nov 00:03:35 00:05:20 12° 88° (E) 00:07:06 437.445
SO-50 19 Nov 00:10:32 00:14:38 34° 321° (NW) 00:18:48 436.795
O/OREOS (USA 219) 19 Nov 00:31:28 00:35:17 27° 256° (WSW) 00:39:03 437.305
Oscar 19 19 Nov 00:32:07 00:35:25 17° 89° (E) 00:38:43 437.125/150
DUCHIFAT 1 19 Nov 00:32:40 00:36:52 86° 286° (WNW) 00:41:01 145.980
PRISM 19 Nov 00:32:59 00:34:26 12° 304° (WNW) 00:35:52 437.425
PCSat 19 Nov 00:33:59 00:38:53 36° 113° (ESE) 00:43:50 145.827
Gurwin Techsat 1B 19 Nov 00:34:07 00:36:33 13° 86° (E) 00:38:57 435.225
EO-79 19 Nov 00:36:14 00:40:24 63° 288° (WNW) 00:44:32 145.935-145.965
DX 1 19 Nov 00:40:04 00:44:25 69° 72° (ENE) 00:48:48 434.975-435.025
NANOSAT C BR1 19 Nov 00:41:32 00:45:42 62° 287° (WNW) 00:49:48 145.865
nSIGHT-1 19 Nov 00:47:36 00:50:43 46° 356° (N) 00:53:50 .
AIST 2D 19 Nov 00:49:10 00:50:57 13° 298° (WNW) 00:52:44 435.315
POLYITAN 1 19 Nov 00:50:49 00:54:50 45° 290° (WNW) 00:58:49 437.675
SPROUT 19 Nov 01:08:45 01:10:34 12° 272° (W) 01:12:23 437.525
QB50P2 19 Nov 01:14:18 01:17:46 25° 295° (WNW) 01:21:12 145.880/145.840
50 SAT 19 Nov 01:15:22 01:18:23 35° 261° (W) 01:21:27 437.505
BEESAT 19 Nov 01:16:27 01:19:56 20° 60° (ENE) 01:23:24 436.000
ISS 19 Nov 01:22:08 01:25:19 46° 1° (N) 01:28:29 437.550
ITUPSAT 1 19 Nov 01:23:48 01:27:32 23° 61° (ENE) 01:31:15 437.325
VELOX 1 19 Nov 01:24:07 01:26:22 14° 272° (W) 01:28:38 145.980
UKube-1 19 Nov 01:28:37 01:32:53 61° 258° (WSW) 01:37:12 .
BUGSAT 1 19 Nov 01:37:08 01:41:11 69° 287° (WNW) 01:45:10 437.445
M-CUBED/EXP-1 PRIME 19 Nov 01:38:57 01:40:15 11° 93° (E) 01:41:34 437.505
SO-50 19 Nov 01:54:17 01:56:25 13° 344° (NNW) 01:58:34 436.795
MOZHAYETS 4 19 Nov 02:03:13 02:07:41 57° 72° (ENE) 02:12:11
RS-15 19 Nov 02:08:28 02:20:13 51° 31° (NNE) 02:31:20 29.354- 29.394
CUBESAT XI-V 19 Nov 02:08:29 02:11:41 19° 60° (ENE) 02:14:54 437.345
Oscar 19 19 Nov 02:10:09 02:15:18 75° 288° (WNW) 02:20:27 437.125/150
DUCHIFAT 1 19 Nov 02:10:27 02:11:50 11° 303° (WNW) 02:13:13 145.980
Gurwin Techsat 1B 19 Nov 02:11:56 02:17:19 84° 105° (ESE) 02:22:39 435.225
PCSat 19 Nov 02:17:01 02:22:12 45° 313° (NW) 02:27:26 145.827
DX 1 19 Nov 02:18:40 02:21:04 14° 271° (W) 02:23:29 434.975-435.025
nSIGHT-1 19 Nov 02:24:02 02:27:14 66° 16° (NNE) 02:30:25 .
AO-7 19 Nov 02:34:23 02:41:12 27° 92° (E) 02:47:59 .
KKS-1 19 Nov 02:42:47 02:44:22 12° 55° (NE) 02:45:57 437.445
BEESAT 19 Nov 02:52:33 02:57:17 61° 258° (WSW) 03:02:02 436.000
ISS 19 Nov 02:58:43 03:02:00 87° 22° (NNE) 03:05:17 437.550
ITUPSAT 1 19 Nov 03:00:20 03:05:01 53° 259° (W) 03:09:44 437.325
M-CUBED/EXP-1 PRIME 19 Nov 03:10:44 03:15:12 82° 111° (ESE) 03:19:49 437.505
STARS 19 Nov 03:16:03 03:16:53 10° 54° (NE) 03:17:42 437.465
BEESAT 3 19 Nov 03:25:05 03:28:51 41° 121° (ESE) 03:32:38 437.485
SO-50 19 Nov 03:37:20 03:38:54 11° 10° (N) 03:40:28 436.795
MOZHAYETS 4 19 Nov 03:42:04 03:45:13 18° 270° (W) 03:48:23
CUBESAT XI-V 19 Nov 03:44:04 03:48:36 62° 259° (W) 03:53:12 437.345
Oscar 19 19 Nov 03:51:18 03:53:47 14° 307° (NW) 03:56:16 437.125/150
Gurwin Techsat 1B 19 Nov 03:53:06 03:56:36 18° 304° (NW) 04:00:06 435.225
ITAMSAT 1 19 Nov 03:56:14 04:01:29 69° 103° (ESE) 04:06:39 435.822/435.867
nSIGHT-1 19 Nov 04:00:26 04:03:20 31° 214° (SW) 04:06:11 .
PCSat 19 Nov 04:03:52 04:07:02 15° 337° (NNW) 04:10:12 145.827
DOVE 4 19 Nov 04:05:58 04:09:48 20° 88° (E) 04:13:31 437.250
KKS-1 19 Nov 04:15:40 04:20:08 77° 74° (ENE) 04:24:39 437.445
RS-15 19 Nov 04:21:38 04:33:28 71° 240° (WSW) 04:44:38 29.354- 29.394
YUBILEINY 19 Nov 04:24:53 04:31:29 25° 77° (ENE) 04:38:06 435.215
AO-7 19 Nov 04:26:27 04:34:49 80° 293° (WNW) 04:43:10 .
BEESAT 2 19 Nov 04:29:26 04:33:22 56° 124° (ESE) 04:37:22 435.950
ISS 19 Nov 04:35:38 04:38:11 21° 219° (SW) 04:40:42 437.550
M-CUBED/EXP-1 PRIME 19 Nov 04:46:18 04:49:03 16° 306° (NW) 04:51:53 437.505
STARS 19 Nov 04:47:59 04:52:23 69° 72° (ENE) 04:56:50 437.465
BEESAT 3 19 Nov 05:02:57 05:06:30 29° 320° (NW) 05:10:03 437.485
CUTE-I 19 Nov 05:09:39 05:12:37 15° 87° (E) 05:15:34 437.470
STRAND 1 19 Nov 05:10:04 05:13:37 19° 57° (ENE) 05:17:11 437.568
SO-50 19 Nov 05:17:07 05:20:57 25° 34° (NNE) 05:24:49 436.795
LilacSat-2 19 Nov 05:17:46 05:20:22 17° 92° (E) 05:22:58 437.200
XW-2C 19 Nov 05:19:22 05:21:53 17° 91° (E) 05:24:23 145.795 - 145.815
NUDT-PHONESAT 19 Nov 05:22:00 05:23:31 12° 89° (E) 05:25:02 437.300
AO-85 19 Nov 05:27:12 05:31:06 83° 127° (SE) 05:35:14 145.980
HO-68 19 Nov 05:31:26 05:34:26 13° 83° (E) 05:37:25 435.675
XW-2F 19 Nov 05:32:22 05:35:19 21° 93° (E) 05:38:16 145.980 - 146.000
ITAMSAT 1 19 Nov 05:36:37 05:40:27 21° 302° (WNW) 05:44:16 435.822/435.867
DOVE 4 19 Nov 05:42:42 05:47:57 65° 288° (WNW) 05:52:58 437.250
PCSat 19 Nov 05:51:37 05:52:54 11° 4° (N) 05:54:11 145.827
KKS-1 19 Nov 05:55:03 05:57:15 13° 272° (W) 05:59:28 437.445
CUTE 1.7 + AOD 2 19 Nov 05:57:42 05:59:30 12° 87° (E) 06:01:18 437.475
KAITUO 1B 19 Nov 06:04:41 06:08:13 37° 98° (E) 06:11:44 145.475/437.950
BEESAT 2 19 Nov 06:08:01 06:11:23 25° 323° (NW) 06:14:47 435.950
XW-2D 19 Nov 06:12:21 06:16:08 66° 101° (E) 06:19:55 145.860 - 145.880
YUBILEINY 19 Nov 06:18:26 06:27:12 84° 279° (W) 06:36:06 435.215
AO-7 19 Nov 06:20:11 06:26:26 25° 315° (NW) 06:32:43 .
CUBEBUG 2 19 Nov 06:25:14 06:27:22 14° 88° (E) 06:29:29 437.445
STARS 19 Nov 06:26:43 06:29:12 15° 271° (W) 06:31:42 437.465
XW-2B 19 Nov 06:27:04 06:30:53 88° 284° (WNW) 06:34:41 145.730 - 145.750
SEEDS 19 Nov 06:32:42 06:35:36 18° 90° (E) 06:38:30 437.485
FO-29 19 Nov 06:35:19 06:41:15 34° 58° (ENE) 06:47:46 435.910
RS-15 19 Nov 06:36:09 06:43:32 20° 264° (W) 06:50:42 29.354- 29.394
BEESAT 3 19 Nov 06:45:02 06:45:17 10° 343° (NNW) 06:45:32 437.485
STRAND 1 19 Nov 06:47:05 06:52:14 75° 257° (WSW) 06:57:26 437.568
CUTE-I 19 Nov 06:47:59 06:53:24 88° 295° (WNW) 06:58:46 437.470
AAUSAT CUBESAT 2 19 Nov 06:48:56 06:50:28 12° 87° (E) 06:52:01 437.432
LilacSat-2 19 Nov 06:51:13 06:54:51 43° 289° (WNW) 06:58:30 437.200
XW-2C 19 Nov 06:52:39 06:56:16 44° 289° (WNW) 06:59:54 145.795 - 145.815
NUDT-PHONESAT 19 Nov 06:54:05 06:57:44 60° 287° (WNW) 07:01:23 437.300
SO-50 19 Nov 06:57:14 07:01:52 74° 235° (SW) 07:06:33 436.795
XW-2F 19 Nov 07:06:04 07:09:30 34° 291° (WNW) 07:12:57 145.980 - 146.000
AO-85 19 Nov 07:09:05 07:12:04 20° 330° (NNW) 07:15:11 145.980
HO-68 19 Nov 07:16:24 07:23:36 65° 103° (ESE) 07:30:42 435.675
DOVE 4 19 Nov 07:22:32 07:24:34 12° 308° (NW) 07:26:35 437.250
ZACube-1 19 Nov 07:23:39 07:26:26 17° 91° (E) 07:29:12 437.345
XW-2A 19 Nov 07:25:01 07:27:55 26° 96° (E) 07:30:48 145.665 - 145.685
UWE-3 19 Nov 07:26:33 07:30:20 32° 96° (E) 07:34:03 435.000/436.395/437.385
CUTE 1.7 + AOD 2 19 Nov 07:31:35 07:35:51 76° 286° (WNW) 07:40:08 437.475
PCSat 19 Nov 07:34:39 07:38:34 20° 30° (NNE) 07:42:29 145.827
KAITUO 1B 19 Nov 07:39:11 07:41:58 20° 295° (WNW) 07:44:46 145.475/437.950
XW-2D 19 Nov 07:47:59 07:49:49 13° 299° (WNW) 07:51:40 145.860 - 145.880
CUBEBUG 2 19 Nov 08:00:17 08:04:29 65° 287° (WNW) 08:08:35 437.445
UNISAT 6 19 Nov 08:01:14 08:05:02 26° 65° (ENE) 08:08:47 437.425
TIGRISAT 19 Nov 08:06:18 08:10:08 27° 65° (ENE) 08:13:54 435.000
SEEDS 19 Nov 08:07:27 08:11:35 52° 288° (WNW) 08:15:42 437.485
PRISM 19 Nov 08:15:12 08:17:23 14° 58° (ENE) 08:19:35 437.425
AO-73 19 Nov 08:15:28 08:19:30 50° 100° (E) 08:23:32 145.935
YUBILEINY 19 Nov 08:18:58 08:25:32 23° 304° (NW) 08:32:11 435.215
FO-29 19 Nov 08:19:19 08:25:51 61° 261° (W) 08:33:13 435.910
AAUSAT CUBESAT 2 19 Nov 08:22:15 08:26:27 78° 285° (WNW) 08:30:38 437.432
CUTE-I 19 Nov 08:29:24 08:32:43 17° 305° (NW) 08:36:01 437.470
STRAND 1 19 Nov 08:30:58 08:32:18 11° 275° (W) 08:33:39 437.568
Oscar 11 19 Nov 08:34:49 08:39:05 56° 100° (E) 08:43:20 .
SO-50 19 Nov 08:40:14 08:41:32 11° 252° (WSW) 08:42:50 436.795
XW-2A 19 Nov 08:57:52 09:00:30 22° 293° (WNW) 09:03:08 145.665 - 145.685
ZACube-1 19 Nov 08:59:00 09:03:01 50° 288° (WNW) 09:07:01 437.345
UWE-3 19 Nov 09:03:12 09:06:43 27° 294° (WNW) 09:10:11 435.000/436.395/437.385
HO-68 19 Nov 09:04:43 09:10:53 32° 304° (NW) 09:17:04 435.675
CUTE 1.7 + AOD 2 19 Nov 09:10:04 09:10:56 11° 304° (NW) 09:11:48 437.475
DELFI C3 19 Nov 09:17:28 09:21:10 35° 97° (E) 09:24:50 145.870
PCSat 19 Nov 09:17:32 09:22:59 69° 53° (NE) 09:28:23 145.827
Max Valier Satellite 19 Nov 09:21:41 09:24:48 26° 95° (E) 09:27:57 145.860
EO-88 19 Nov 09:26:18 09:29:09 21° 93° (E) 09:32:00 145.990 - 145.960
UNISAT 6 19 Nov 09:37:16 09:41:35 40° 262° (W) 09:45:51 437.425
TIGRISAT 19 Nov 09:42:23 09:46:40 39° 263° (W) 09:50:55 435.000
PRISM 19 Nov 09:47:59 09:52:06 74° 257° (WSW) 09:56:16 437.425
AIST 2D 19 Nov 09:52:19 09:55:27 33° 70° (ENE) 09:58:37 435.315
AO-73 19 Nov 09:52:32 09:55:25 19° 298° (WNW) 09:58:17 145.935
DUCHIFAT 1 19 Nov 09:54:18 09:56:35 14° 59° (ENE) 09:58:53 145.980
EO-79 19 Nov 09:57:33 10:00:34 19° 62° (ENE) 10:03:35 145.935-145.965
AAUSAT CUBESAT 2 19 Nov 10:00:23 10:01:09 10° 304° (WNW) 10:01:55 437.432
BEESAT 3 19 Nov 10:01:08 10:03:53 18° 31° (NNE) 10:06:36 437.485
NANOSAT C BR1 19 Nov 10:02:32 10:05:32 19° 62° (ENE) 10:08:33 145.865
FO-29 19 Nov 10:10:19 10:12:39 12° 283° (WNW) 10:15:04 435.910
POLYITAN 1 19 Nov 10:11:33 10:15:03 25° 65° (ENE) 10:18:33 437.675
Oscar 11 19 Nov 10:11:50 10:14:50 19° 299° (WNW) 10:17:50 .
QB50P2 19 Nov 10:33:58 10:38:01 45° 70° (ENE) 10:42:05 145.880/145.840
AO-85 19 Nov 10:34:30 10:36:35 13° 20° (NNE) 10:38:42 145.980
DELFI C3 19 Nov 10:52:30 10:55:45 24° 295° (WNW) 10:58:59 145.870
Max Valier Satellite 19 Nov 10:55:29 10:58:35 26° 293° (WNW) 11:01:40 145.860
BUGSAT 1 19 Nov 10:56:23 10:59:03 17° 61° (ENE) 11:01:43 437.445
EO-88 19 Nov 10:59:34 11:02:51 32° 291° (WNW) 11:06:07 145.990 - 145.960
ESTCUBE 1 19 Nov 10:59:51 11:03:47 28° 95° (E) 11:07:41 437.505/2401.250
PCSat 19 Nov 11:01:46 11:05:52 22° 252° (WSW) 11:09:57 145.827
BEESAT 2 19 Nov 11:06:14 11:09:25 21° 34° (NE) 11:12:33 435.950
AIST 2D 19 Nov 11:26:17 11:28:44 18° 268° (W) 11:31:12 435.315
DUCHIFAT 1 19 Nov 11:27:30 11:31:43 74° 256° (WSW) 11:35:57 145.980
LO-87 19 Nov 11:31:42 11:35:16 85° 102° (ESE) 11:38:49 145.935 - 145.965
EO-79 19 Nov 11:31:49 11:35:58 52° 260° (W) 11:40:08 145.935-145.965
VELOX 1 19 Nov 11:33:38 11:34:38 11° 86° (E) 11:35:39 145.980
NANOSAT C BR1 19 Nov 11:36:46 11:40:54 52° 260° (W) 11:45:03 145.865
BEESAT 3 19 Nov 11:38:01 11:42:01 86° 51° (NE) 11:45:56 437.485
POLYITAN 1 19 Nov 11:46:43 11:50:40 37° 262° (W) 11:54:38 437.675
AO-7 19 Nov 11:49:22 11:54:10 17° 37° (NE) 11:58:59 .
Oscar 19 19 Nov 11:52:11 11:56:49 36° 65° (ENE) 12:01:29 437.125/150
Gurwin Techsat 1B 19 Nov 11:57:57 12:02:36 32° 63° (ENE) 12:07:15 435.225
QB50P2 19 Nov 12:10:49 12:14:01 20° 268° (W) 12:17:13 145.880/145.840
AO-85 19 Nov 12:13:56 12:18:11 37° 42° (NE) 12:22:42 145.980
M-CUBED/EXP-1 PRIME 19 Nov 12:26:59 12:29:43 20° 56° (NE) 12:32:37 437.505
BUGSAT 1 19 Nov 12:29:49 12:33:59 61° 259° (W) 12:38:08 437.445
ESTCUBE 1 19 Nov 12:36:29 12:40:38 36° 293° (WNW) 12:44:47 437.505/2401.250
BEESAT 2 19 Nov 12:43:31 12:47:34 70° 235° (SW) 12:51:32 435.950
SPROUT 19 Nov 12:47:15 12:51:32 87° 105° (ESE) 12:55:46 437.525
VELOX 1 19 Nov 13:07:16 13:11:45 87° 98° (E) 13:16:13 145.980
O/OREOS (USA 219) 19 Nov 13:08:35 13:12:07 22° 102° (ESE) 13:15:41 437.305
UKube-1 19 Nov 13:12:35 13:15:24 17° 91° (E) 13:18:12 .
BEESAT 3 19 Nov 13:17:31 13:18:54 12° 250° (WSW) 13:20:17 437.485
Oscar 19 19 Nov 13:31:29 13:36:09 35° 264° (W) 13:40:51 437.125/150
AO-7 19 Nov 13:37:12 13:45:08 53° 60° (ENE) 13:53:07 .
Gurwin Techsat 1B 19 Nov 13:37:20 13:42:23 44° 262° (W) 13:47:29 435.225
ITAMSAT 1 19 Nov 13:39:56 13:44:10 26° 60° (ENE) 13:48:25 435.822/435.867
AO-85 19 Nov 13:54:17 13:58:39 41° 240° (WSW) 14:03:19 145.980
DX 1 19 Nov 14:00:18 14:04:43 75° 104° (ESE) 14:09:06 434.975-435.025
M-CUBED/EXP-1 PRIME 19 Nov 14:00:32 14:03:52 39° 256° (WSW) 14:07:29 437.505
50 SAT 19 Nov 14:00:39 14:03:55 78° 283° (WNW) 14:07:08 437.505
SPROUT 19 Nov 14:24:55 14:26:46 13° 303° (WNW) 14:28:37 437.525
YUBILEINY 19 Nov 14:28:25 14:33:39 16° 49° (NE) 14:38:51 435.215
VELOX 1 19 Nov 14:45:19 14:47:33 14° 303° (WNW) 14:49:47 145.980
O/OREOS (USA 219) 19 Nov 14:46:45 14:51:13 50° 301° (WNW) 14:55:44 437.305
UKube-1 19 Nov 14:47:31 14:51:47 58° 289° (WNW) 14:56:02 .
BEESAT 19 Nov 14:49:04 14:53:00 25° 94° (E) 14:56:53 436.000
ITUPSAT 1 19 Nov 14:57:01 15:01:10 29° 95° (E) 15:05:16 437.325
DOVE 4 19 Nov 15:14:18 15:18:39 30° 63° (ENE) 15:23:10 437.250
ITAMSAT 1 19 Nov 15:18:11 15:23:18 55° 259° (W) 15:28:28 435.822/435.867
AO-7 19 Nov 15:30:19 15:38:05 43° 261° (W) 15:45:56 .
MOZHAYETS 4 19 Nov 15:31:06 15:35:41 80° 102° (ESE) 15:40:16
CUBESAT XI-V 19 Nov 15:36:53 15:40:45 25° 93° (E) 15:44:37 437.345
DX 1 19 Nov 15:37:48 15:40:21 15° 302° (WNW) 15:42:53 434.975-435.025
LilacSat-2 19 Nov 16:03:41 16:05:59 16° 62° (ENE) 16:08:18 437.200
HO-68 19 Nov 16:04:27 16:09:06 19° 47° (NE) 16:13:44 435.675
XW-2C 19 Nov 16:04:41 16:06:52 15° 62° (ENE) 16:09:03 145.795 - 145.815
KKS-1 19 Nov 16:05:07 16:06:22 11° 87° (E) 16:07:37 437.445
NUDT-PHONESAT 19 Nov 16:05:40 16:06:29 11° 59° (ENE) 16:07:18 437.300
NO-84 19 Nov 16:10:38 16:14:16 43° 139° (SE) 16:18:09 435.350 FM
XW-2F 19 Nov 16:17:00 16:19:38 18° 64° (ENE) 16:22:16 145.980 - 146.000
YUBILEINY 19 Nov 16:23:53 16:32:42 62° 75° (ENE) 16:41:25 435.215
BEESAT 19 Nov 16:26:25 16:30:57 45° 292° (WNW) 16:35:27 436.000
O/OREOS (USA 219) 19 Nov 16:30:50 16:31:47 11° 323° (NW) 16:32:44 437.305
CUTE-I 19 Nov 16:34:23 16:39:14 36° 64° (ENE) 16:44:06 437.470
ITUPSAT 1 19 Nov 16:34:39 16:39:05 39° 293° (WNW) 16:43:29 437.325
RS-15 19 Nov 16:45:14 16:50:00 13° 91° (E) 16:54:44 29.354- 29.394
KAITUO 1B 19 Nov 16:48:04 16:51:18 30° 68° (ENE) 16:54:34 145.475/437.950
DOVE 4 19 Nov 16:51:18 16:56:07 45° 263° (W) 17:01:09 437.250
CUTE 1.7 + AOD 2 19 Nov 16:53:52 16:56:19 15° 60° (ENE) 16:58:46 437.475
XW-2D 19 Nov 16:56:46 17:00:24 53° 73° (ENE) 17:04:04 145.860 - 145.880
MOZHAYETS 4 19 Nov 17:09:39 17:12:16 15° 302° (WNW) 17:14:51
XW-2B 19 Nov 17:11:25 17:15:08 75° 75° (ENE) 17:18:54 145.730 - 145.750
CUBESAT XI-V 19 Nov 17:13:51 17:18:17 43° 291° (WNW) 17:22:43 437.345
CUBEBUG 2 19 Nov 17:26:10 17:29:35 21° 63° (ENE) 17:32:56 437.445
SEEDS 19 Nov 17:27:56 17:31:00 20° 63° (ENE) 17:34:06 437.485
NUDT-PHONESAT 19 Nov 17:36:06 17:39:44 79° 255° (WSW) 17:43:26 437.300
LilacSat-2 19 Nov 17:36:14 17:39:53 51° 261° (W) 17:43:35 437.200
XW-2C 19 Nov 17:37:00 17:40:38 53° 259° (W) 17:44:20 145.795 - 145.815
KKS-1 19 Nov 17:39:04 17:43:36 89° 121° (ESE) 17:48:03 437.445
AAUSAT CUBESAT 2 19 Nov 17:42:32 17:44:39 14° 59° (ENE) 17:46:47 437.432
NO-84 19 Nov 17:47:46 17:51:37 50° 339° (NNW) 17:55:43 435.350 FM
HO-68 19 Nov 17:48:30 17:55:38 70° 68° (ENE) 18:02:49 435.675
XW-2F 19 Nov 17:49:57 17:53:28 40° 262° (W) 17:57:01 145.980 - 146.000
XW-2A 19 Nov 18:00:04 18:02:20 17° 65° (ENE) 18:04:37 145.665 - 145.685
STARS 19 Nov 18:09:32 18:13:59 78° 104° (ESE) 18:18:21 437.465
CUTE-I 19 Nov 18:14:14 18:19:13 39° 263° (W) 18:24:16 437.470
YUBILEINY 19 Nov 18:21:18 18:29:02 36° 277° (W) 18:36:44 435.215
KAITUO 1B 19 Nov 18:22:21 18:25:18 23° 266° (W) 18:28:18 145.475/437.950
ZACube-1 19 Nov 18:22:45 18:26:09 23° 64° (ENE) 18:29:31 437.345
UWE-3 19 Nov 18:26:36 18:30:49 43° 70° (ENE) 18:34:57 435.000/436.395/437.385
CUTE 1.7 + AOD 2 19 Nov 18:27:28 18:31:38 68° 258° (WSW) 18:35:52 437.475
XW-2D 19 Nov 18:32:57 18:34:54 14° 270° (W) 18:36:53 145.860 - 145.880
RS-15 19 Nov 18:47:42 18:59:28 55° 114° (ESE) 19:11:09 29.354- 29.394
STRAND 1 19 Nov 18:54:03 18:58:27 28° 94° (E) 19:02:48 437.568
CUBEBUG 2 19 Nov 19:01:22 19:05:53 52° 260° (W) 19:10:17 437.445
SEEDS 19 Nov 19:02:23 19:06:23 46° 261° (W) 19:10:27 437.485
AO-73 19 Nov 19:14:04 19:18:20 63° 73° (ENE) 19:22:31 145.935
AAUSAT CUBESAT 2 19 Nov 19:15:26 19:19:32 74° 257° (WSW) 19:23:43 437.432
KKS-1 19 Nov 19:17:17 19:19:28 14° 304° (NW) 19:21:38 437.445
FO-29 19 Nov 19:25:04 19:31:08 24° 86° (E) 19:36:59 435.910
NO-84 19 Nov 19:25:52 19:29:37 33° 0° (N) 19:33:30 435.350 FM
XW-2A 19 Nov 19:31:46 19:34:49 33° 262° (W) 19:37:53 145.665 - 145.685
Oscar 11 19 Nov 19:32:51 19:37:07 68° 73° (ENE) 19:41:24 .
HO-68 19 Nov 19:38:00 19:43:58 27° 268° (W) 19:49:57 435.675
STARS 19 Nov 19:47:16 19:49:44 15° 303° (WNW) 19:52:11 437.465
ZACube-1 19 Nov 19:58:06 20:02:13 42° 262° (W) 20:06:17 437.345
UWE-3 19 Nov 20:03:57 20:07:27 22° 267° (W) 20:10:54 435.000/436.395/437.385
Max Valier Satellite 19 Nov 20:04:09 20:06:59 21° 66° (ENE) 20:09:49 145.860
DELFI C3 19 Nov 20:06:00 20:09:34 33° 68° (ENE) 20:13:11 145.870
EO-88 19 Nov 20:07:47 20:10:14 17° 64° (ENE) 20:12:41 145.990 - 145.960
STRAND 1 19 Nov 20:32:56 20:37:49 45° 292° (WNW) 20:42:38 437.568
AO-73 19 Nov 20:52:30 20:54:57 15° 271° (W) 20:57:24 145.935
RS-15 19 Nov 20:59:47 21:12:01 62° 320° (NW) 21:24:04 29.354- 29.394
NO-84 19 Nov 21:03:30 21:07:38 51° 21° (NNE) 21:11:50 435.350 FM
FO-29 19 Nov 21:09:06 21:17:03 87° 287° (WNW) 21:24:40 435.910
Oscar 11 19 Nov 21:11:26 21:13:43 14° 272° (W) 21:16:00 .
SO-50 19 Nov 21:17:13 21:19:27 14° 110° (ESE) 21:21:41 436.795
ISS 19 Nov 21:18:11 21:20:16 16° 138° (SE) 21:22:21 437.550
UNISAT 6 19 Nov 21:24:57 21:28:47 30° 95° (E) 21:32:34 437.425
PRISM 19 Nov 21:27:14 21:28:47 12° 88° (E) 21:30:20 437.425
TIGRISAT 19 Nov 21:29:51 21:33:42 31° 95° (E) 21:37:30 435.000
O/OREOS (USA 219) 19 Nov 21:35:25 21:38:02 15° 42° (NE) 21:40:37 437.305
Max Valier Satellite 19 Nov 21:37:20 21:40:38 32° 263° (W) 21:43:59 145.860
EO-88 19 Nov 21:40:09 21:43:35 41° 262° (W) 21:47:03 145.990 - 145.960
DELFI C3 19 Nov 21:41:06 21:44:21 24° 266° (W) 21:47:39 145.870
ESTCUBE 1 19 Nov 22:02:43 22:06:53 40° 68° (ENE) 22:11:06 437.505/2401.250
SPROUT 19 Nov 22:10:20 22:12:37 14° 58° (ENE) 22:14:53 437.525
LO-87 19 Nov 22:10:38 22:14:12 59° 73° (ENE) 22:17:46 145.935 - 145.965
nSIGHT-1 19 Nov 22:15:25 22:18:32 49° 151° (SSE) 22:21:39 .
VELOX 1 19 Nov 22:33:21 22:36:13 17° 59° (ENE) 22:39:06 145.980
NO-84 19 Nov 22:40:56 22:45:02 46° 221° (SW) 22:49:06 435.350 FM
AIST 2D 19 Nov 22:46:14 22:49:11 24° 95° (E) 22:52:07 435.315
ISS 19 Nov 22:53:03 22:56:19 76° 155° (SSE) 22:59:35 437.550
SO-50 19 Nov 22:54:44 22:59:13 89° 300° (WNW) 23:03:47 436.795
FO-29 19 Nov 22:55:01 23:01:04 25° 307° (NW) 23:07:02 435.910
PRISM 19 Nov 23:00:23 23:04:35 78° 286° (WNW) 23:08:44 437.425
UNISAT 6 19 Nov 23:01:42 23:05:28 30° 294° (WNW) 23:09:11 437.425
TIGRISAT 19 Nov 23:06:38 23:10:21 29° 294° (WNW) 23:14:02 435.000
DUCHIFAT 1 19 Nov 23:09:01 23:11:04 13° 89° (E) 23:13:06 145.980
EO-79 19 Nov 23:13:09 23:16:10 19° 92° (E) 23:19:09 145.935-145.965
O/OREOS (USA 219) 19 Nov 23:13:37 23:18:14 81° 63° (ENE) 23:22:45 437.305
NANOSAT C BR1 19 Nov 23:17:44 23:20:42 19° 91° (E) 23:23:40 145.865
DX 1 19 Nov 23:25:26 23:27:51 15° 58° (ENE) 23:30:17 434.975-435.025
POLYITAN 1 19 Nov 23:27:32 23:31:05 26° 94° (E) 23:34:36 437.675
